FW1932 Weather Reports


time (UTC)temp
C
wind
direction
speed
KPH
gust
KPH
rain 1hr
cm
rain 24hr
cm
rain mn
cm
humidity
%
barometer
mb
20260510191509 15 268 1.6 8.0 0.00 0.00 0.00 84 1009.8
20260510190021 15 250 1.6 4.8 0.00 0.00 0.00 84 1009.8
20260510184507 16 241 1.6 6.4 0.00 0.00 0.00 82 1009.9
20260510183013 16 269 1.6 8.0 0.00 0.00 0.00 81 1010.0
20260510181521 16 117 3.2 8.0 0.00 0.00 0.00 81 1010.0
20260510180006 16 84 1.6 9.7 0.00 0.00 0.00 81 1010.0
20260510174504 16 233 1.6 8.0 0.00 0.00 0.00 81 1010.1
20260510173004 16 250 1.6 11.3 0.00 0.00 0.00 81 1010.2
20260510171506 16 263 3.2 12.9 0.00 0.00 0.00 80 1010.2
20260510170003 16 225 4.8 9.7 0.00 0.00 0.00 81 1010.3
20260510163201 16 267 3.2 9.7 0.00 0.00 0.00 81 1010.5
20260510161557 16 229 1.6 6.4 0.00 0.00 0.00 81 1010.7
20260510160058 16 230 4.8 14.5 0.00 0.00 0.00 81 1010.9
20260510154556 16 213 3.2 20.9 0.00 0.00 0.00 83 1011.0
20260510153056 16 223 4.8 14.5 0.00 0.00 0.00 81 1011.1
20260510151601 16 262 3.2 12.9 0.00 0.00 0.00 81 1011.0
20260510150055 16 239 3.2 9.7 0.00 0.00 0.00 80 1011.1
20260510144554 16 229 1.6 12.9 0.00 0.00 0.00 79 1011.2
20260510143053 17 233 3.2 11.3 0.00 0.00 0.00 76 1011.1
20260510141601 17 233 8.0 19.3 0.00 0.00 0.00 73 1011.1
20260510140055 18 236 1.6 19.3 0.00 0.00 0.00 71 1011.0
20260510134556 19 243 6.4 16.1 0.00 0.00 0.00 70 1010.9
20260510133102 20 259 1.6 9.7 0.00 0.00 0.00 68 1010.7
20260510131601 20 251 1.6 11.3 0.00 0.00 0.00 67 1010.8
20260510130048 20 234 1.6 9.7 0.00 0.00 0.00 68 1010.8
20260510124546 20 253 3.2 8.0 0.00 0.00 0.00 69 1010.8
20260510123057 20 236 1.6 8.0 0.00 0.00 0.00 68 1010.8
20260510121542 19 219 1.6 6.4 0.00 0.00 0.00 70 1011.0
20260510120040 18 245 3.2 11.3 0.00 0.00 0.00 71 1011.1
20260510114539 18 248 1.6 8.0 0.00 0.00 0.00 71 1011.2
20260510113043 19 242 1.6 6.4 0.00 0.00 0.00 70 1011.2
20260510111538 19 248 0.0 1.6 0.00 0.00 0.00 70 1011.2
20260510110036 19 243 0.0 3.2 0.00 0.00 0.00 70 1011.3
20260510104533 18 237 1.6 3.2 0.00 0.00 0.00 71 1011.4
20260510103033 18 235 1.6 6.4 0.00 0.00 0.00 70 1011.5
20260510101531 19 232 1.6 6.4 0.00 0.00 0.00 72 1011.8
20260510100030 18 235 3.2 8.0 0.00 0.00 0.00 72 1011.8
20260510094529 18 243 1.6 6.4 0.00 0.00 0.00 71 1011.9
20260510093027 18 219 3.2 8.0 0.00 0.00 0.00 70 1012.1
20260510091526 18 236 0.0 3.2 0.00 0.00 0.00 72 1012.0
20260510090025 18 243 0.0 4.8 0.00 0.00 0.00 72 1012.1
20260510084524 18 241 1.6 4.8 0.00 0.00 0.00 70 1012.2
20260510083023 18 246 0.0 3.2 0.00 0.00 0.00 71 1012.3
20260510081520 18 238 1.6 4.8 0.00 0.00 0.00 72 1012.4
20260510080019 17 255 0.0 4.8 0.00 0.00 0.00 74 1012.7
20260510074515 17 241 0.0 3.2 0.00 0.00 0.00 74 1012.8
20260510073014 17 234 0.0 4.8 0.00 0.00 0.00 74 1012.8
20260510071514 17 242 0.0 1.6 0.00 0.00 0.00 75 1012.6
20260510070013 17 233 0.0 1.6 0.00 0.00 0.00 75 1012.5
20260510064510 17 232 0.0 1.6 0.00 0.00 0.00 76 1012.4
20260510063008 15 232 0.0 1.6 0.00 0.00 0.00 78 1012.6
20260510061506 15 231 0.0 0.0 0.00 0.00 0.00 80 1012.6
20260510060009 15 231 0.0 0.0 0.00 0.00 0.00 82 1012.5
20260510054603 13 232 0.0 0.0 0.00 0.00 0.00 87 1012.7
20260510053002 11 231 0.0 0.0 0.00 0.00 0.00 90 1012.7
20260510051502 11 231 0.0 0.0 0.00 0.00 0.00 90 1012.7
20260510050001 11 231 0.0 0.0 0.00 0.00 0.00 90 1012.8
20260510044603 11 232 0.0 0.0 0.00 0.00 0.00 90 1012.8
20260510043109 11 231 0.0 0.0 0.00 0.00 0.00 89 1012.7
20260510041600 11 231 0.0 0.0 0.00 0.00 0.00 90 1012.8
20260510040109 11 231 0.0 0.0 0.00 0.00 0.00 90 1013.1
20260510034555 11 231 0.0 0.0 0.00 0.00 0.00 89 1013.1
20260510033055 11 231 0.0 0.0 0.00 0.00 0.00 89 1013.1
20260510031557 11 231 0.0 0.0 0.00 0.00 0.00 89 1013.2
20260510030152 11 231 0.0 0.0 0.00 0.00 0.00 89 1013.3
20260510024550 11 232 0.0 0.0 0.00 0.00 0.00 89 1013.2
20260510023048 12 231 0.0 0.0 0.00 0.00 0.00 88 1013.4
20260510021548 12 232 0.0 0.0 0.00 0.00 0.00 88 1013.3
20260510020046 12 231 0.0 0.0 0.00 0.00 0.00 88 1013.2
20260510014545 12 231 0.0 0.0 0.00 0.00 0.00 88 1013.3
20260510013043 12 232 0.0 0.0 0.00 0.00 0.00 88 1013.4
20260510011541 12 231 0.0 0.0 0.00 0.00 0.00 87 1013.4
20260510010039 12 231 0.0 0.0 0.00 0.00 0.00 86 1013.6
20260510004537 12 231 0.0 0.0 0.00 0.00 0.00 86 1013.6
20260510003037 12 231 0.0 0.0 0.00 0.00 0.00 87 1013.7
20260510001535 12 232 0.0 1.6 0.00 0.00 0.00 87 1013.8
20260510000033 13 231 0.0 0.0 0.00 0.00 0.00 85 1013.8
20260509234534 13 231 0.0 0.0 0.00 0.00 0.00 84 1014.1
20260509233026 14 231 0.0 0.0 0.00 0.00 0.00 84 1014.2
20260509231524 14 231 0.0 0.0 0.00 0.00 0.00 82 1014.2
20260509230022 15 231 0.0 0.0 0.00 0.00 0.00 81 1014.1
20260509224520 15 231 0.0 0.0 0.00 0.00 0.00 81 1014.3
20260509223022 15 231 0.0 0.0 0.00 0.00 0.00 79 1014.4
20260509221520 15 232 0.0 0.0 0.00 0.00 0.00 78 1014.5
20260509220017 15 232 0.0 1.6 0.00 0.00 0.00 79 1014.6
20260509214513 15 202 0.0 0.0 0.00 0.00 0.00 75 1014.5
20260509213015 16 204 0.0 0.0 0.00 0.00 0.00 75 1014.5
20260509211514 16 204 0.0 0.0 0.00 0.00 0.00 72 1014.5
20260509210015 16 204 0.0 0.0 0.00 0.00 0.00 70 1014.5
20260509204511 17 204 0.0 0.0 0.00 0.00 0.00 68 1014.6
20260509203010 18 204 0.0 0.0 0.00 0.00 0.00 65 1014.5
20260509201510 18 111 0.0 0.0 0.00 0.00 0.00 64 1014.5
20260509200010 18 111 0.0 1.6 0.00 0.00 0.00 62 1014.4
20260509194509 18 111 0.0 1.6 0.00 0.00 0.00 60 1014.3
20260509193012 18 117 0.0 0.0 0.00 0.00 0.00 61 1014.2